KB8DLR Weather Reports


time (UTC)temp
C
wind
direction
speed
KPH
gust
KPH
rain 1hr
cm
rain 24hr
cm
rain mn
cm
humidity
%
barometer
mb
20260508131029 14 193 3.2 8.0 0.00 0.00 0.00 68 1015.0
20260508130015 13 191 1.6 3.2 0.00 0.00 0.00 72 1015.0
20260508125019 12 180 1.6 4.8 0.00 0.00 0.00 75 1015.0
20260508124023 11 206 3.2 8.0 0.00 0.00 0.00 76 1015.0
20260508123028 11 232 1.6 3.2 0.00 0.00 0.00 78 1015.0
20260508122032 10 189 3.2 6.4 0.00 0.00 0.00 80 1015.0
20260508121018 10 210 1.6 3.2 0.00 0.00 0.00 82 1015.0
20260508120022 9 203 1.6 4.8 0.00 0.00 0.00 84 1015.0
20260508115026 8 186 1.6 3.2 0.00 0.00 0.00 89 1014.9
20260508114031 6 0.0 0.0 0.00 0.00 0.00 95 1014.9
20260508113017 6 0.0 0.0 0.00 0.00 0.00 97 1014.8
20260508112021 6 203 0.0 3.2 0.00 0.00 0.00 99 1014.7
20260508111025 5 0.0 0.0 0.00 0.00 0.00 99 1014.6
20260508110049 4 0.0 0.0 0.00 0.00 0.00 99 1014.5
20260508105036 3 0.0 0.0 0.00 0.00 0.00 99 1014.3
20260508104020 3 0.0 0.0 0.00 0.00 0.00 99 1014.3
20260508103023 4 0.0 0.0 0.00 0.00 0.00 99 1014.4
20260508102027 4 0.0 0.0 0.00 0.00 0.00 99 1014.3
20260508101031 4 0.0 0.0 0.00 0.00 0.00 99 1014.3
20260508100017 5 0.0 0.0 0.00 0.00 0.00 99 1014.3
20260508095042 5 0.0 0.0 0.00 0.00 0.00 99 1014.3
20260508094025 5 0.0 0.0 0.00 0.00 0.00 99 1014.3
20260508093024 5 0.0 0.0 0.00 0.00 0.00 99 1014.3
20260508092016 5 0.0 0.0 0.00 0.00 0.00 99 1014.5
20260508091020 5 0.0 0.0 0.00 0.00 0.00 99 1014.4
20260508090019 5 0.0 0.0 0.00 0.00 0.00 99 1014.4
20260508085016 5 0.0 0.0 0.00 0.00 0.00 99 1014.4
20260508084033 6 0.0 0.0 0.00 0.00 0.00 99 1014.4
20260508083019 6 0.0 0.0 0.00 0.00 0.00 99 1014.4
20260508082023 6 0.0 0.0 0.00 0.00 0.00 99 1014.5
20260508081028 6 0.0 0.0 0.00 0.00 0.00 99 1014.5
20260508080031 6 0.0 0.0 0.00 0.00 0.00 99 1014.5
20260508075018 7 0.0 0.0 0.00 0.00 0.00 99 1014.6
20260508074043 7 0.0 0.0 0.00 0.00 0.00 99 1014.6
20260508073027 7 0.0 0.0 0.00 0.00 0.00 99 1014.6
20260508072030 7 0.0 0.0 0.00 0.00 0.00 99 1014.7
20260508071017 7 0.0 0.0 0.00 0.00 0.00 99 1014.7
20260508070021 6 0.0 0.0 0.00 0.00 0.00 99 1014.7
20260508065025 6 0.0 0.0 0.00 0.00 0.00 99 1014.6
20260508064029 6 23 0.0 1.6 0.00 0.00 0.00 99 1014.6
20260508063016 6 0.0 0.0 0.00 0.00 0.00 99 1014.5
20260508062020 5 0.0 0.0 0.00 0.00 0.00 99 1014.5
20260508061024 5 0.0 0.0 0.00 0.00 0.00 99 1014.5
20260508060028 5 0.0 0.0 0.00 0.00 0.00 99 1014.5
20260508055033 5 0.0 0.0 0.00 0.00 0.00 99 1014.5
20260508054020 5 0.0 0.0 0.00 0.00 0.00 99 1014.6
20260508053043 5 0.0 0.0 0.00 0.00 0.00 99 1014.7
20260508052028 6 0.0 0.0 0.00 0.00 0.00 99 1014.8
20260508051031 6 0.0 0.0 0.00 0.00 0.00 99 1014.8
20260508050017 6 0.0 0.0 0.00 0.00 0.00 99 1014.9
20260508045041 5 0.0 0.0 0.00 0.00 0.00 99 1015.0
20260508044025 5 0.0 0.0 0.00 0.00 0.00 99 1014.9
20260508043029 5 0.0 0.0 0.00 0.00 0.00 99 1014.9
20260508042015 5 0.0 0.0 0.00 0.00 0.00 99 1014.8
20260508041020 5 0.0 0.0 0.00 0.00 0.00 99 1014.7
20260508040024 5 0.0 0.0 0.00 0.00 0.00 99 1014.7
20260508035022 5 0.0 0.0 0.00 0.00 0.00 99 1014.6
20260508034021 6 0.0 0.0 0.00 0.00 0.00 99 1014.6
20260508033018 5 0.0 0.0 0.00 0.00 0.00 99 1014.7
20260508032016 6 0.0 0.0 0.00 0.00 0.00 99 1014.7
20260508031027 6 0.0 0.0 0.00 0.00 0.00 99 1014.8
20260508030031 6 0.0 0.0 0.00 0.00 0.00 98 1014.7
20260508025018 6 0.0 0.0 0.00 0.00 0.00 97 1014.7
20260508024021 7 0.0 0.0 0.00 0.00 0.00 99 1014.7
20260508023025 7 0.0 0.0 0.00 0.00 0.00 94 1014.8
20260508022030 7 0.0 0.0 0.00 0.00 0.00 92 1014.8
20260508021016 7 0.0 0.0 0.00 0.00 0.00 94 1014.8
20260508020021 8 0.0 0.0 0.00 0.00 0.00 91 1014.7
20260508015024 8 0.0 0.0 0.00 0.00 0.00 90 1014.6
20260508014028 8 0.0 0.0 0.00 0.00 0.00 87 1014.6
20260508013032 9 0.0 0.0 0.00 0.00 0.00 82 1014.5
20260508012018 9 0.0 0.0 0.00 0.00 0.00 81 1014.4
20260508011022 10 0.0 0.0 0.00 0.00 0.00 79 1014.1
20260508010026 10 0.0 0.0 0.00 0.00 0.00 72 1014.1
20260508005030 11 0.0 0.0 0.00 0.00 0.00 69 1014.1
20260508004017 11 0.0 0.0 0.00 0.00 0.00 67 1014.0
20260508003022 12 0.0 0.0 0.00 0.00 0.00 63 1013.9
20260508002025 12 0.0 0.0 0.00 0.00 0.00 58 1013.9
20260508001030 13 0.0 0.0 0.00 0.00 0.00 55 1013.9
20260508000016 13 0.0 0.0 0.00 0.00 0.00 54 1013.9
20260507235020 13 0.0 0.0 0.00 0.00 0.00 53 1013.8
20260507234024 14 0.0 0.0 0.00 0.00 0.00 51 1013.7
20260507233029 15 13 0.0 3.2 0.00 0.00 0.00 49 1013.6
20260507232035 15 0.0 0.0 0.00 0.00 0.00 48 1013.6
20260507231019 15 23 1.6 3.2 0.00 0.00 0.00 47 1013.8
20260507230043 15 337 1.6 3.2 0.00 0.00 0.00 50 1013.9
20260507225027 15 58 0.0 3.2 0.00 0.00 0.00 48 1013.9
20260507224026 15 13 1.6 3.2 0.00 0.00 0.00 48 1013.9
20260507223018 16 359 1.6 3.2 0.00 0.00 0.00 48 1013.9
20260507222042 17 323 1.6 3.2 0.00 0.00 0.00 47 1013.9
20260507221021 18 359 1.6 3.2 0.00 0.00 0.00 45 1013.8
20260507220018 20 345 1.6 3.2 0.00 0.00 0.00 41 1013.6
20260507215017 22 358 1.6 4.8 0.00 0.00 0.00 38 1013.6
20260507214015 22 294 1.6 3.2 0.00 0.00 0.00 38 1013.5
20260507213025 21 315 1.6 3.2 0.00 0.00 0.00 40 1013.4
20260507212030 21 356 1.6 4.8 0.00 0.00 0.00 40 1013.4
20260507211017 21 9 1.6 3.2 0.00 0.00 0.00 40 1013.1
20260507210020 22 338 1.6 3.2 0.00 0.00 0.00 38 1013.1
20260507205105 21 272 1.6 3.2 0.00 0.00 0.00 40 1013.1
20260507204029 21 339 1.6 4.8 0.00 0.00 0.00 40 1013.1
20260507203015 20 59 1.6 4.8 0.00 0.00 0.00 42 1013.1
20260507202019 21 291 3.2 4.8 0.00 0.00 0.00 42 1013.1
20260507201023 21 249 1.6 3.2 0.00 0.00 0.00 41 1013.1
20260507200047 22 301 1.6 3.2 0.00 0.00 0.00 40 1013.1
20260507195032 22 325 1.6 3.2 0.00 0.00 0.00 43 1013.3
20260507194018 21 285 1.6 3.2 0.00 0.00 0.00 42 1013.4
20260507193042 22 315 1.6 3.2 0.00 0.00 0.00 40 1013.4
20260507192027 22 270 1.6 3.2 0.00 0.00 0.00 42 1013.6
20260507191031 22 338 1.6 3.2 0.00 0.00 0.00 42 1013.4
20260507190017 21 108 3.2 6.4 0.00 0.00 0.00 43 1013.6
20260507185021 21 254 3.2 4.8 0.00 0.00 0.00 42 1013.6
20260507184025 22 241 3.2 11.3 0.00 0.00 0.00 42 1013.6
20260507183029 21 224 3.2 8.0 0.00 0.00 0.00 43 1013.6
20260507182017 21 249 3.2 6.4 0.00 0.00 0.00 42 1013.4
20260507181020 21 248 1.6 4.8 0.00 0.00 0.00 42 1013.8
20260507180024 21 320 3.2 4.8 0.00 0.00 0.00 41 1013.9
20260507175029 20 295 3.2 6.4 0.00 0.00 0.00 41 1013.9
20260507174054 19 223 3.2 6.4 0.00 0.00 0.00 45 1014.0
20260507173020 21 354 3.2 4.8 0.00 0.00 0.00 42 1014.1
20260507172023 21 318 1.6 3.2 0.00 0.00 0.00 43 1014.1
20260507171028 21 337 1.6 6.4 0.00 0.00 0.00 43 1014.3
20260507170046 21 252 3.2 4.8 0.00 0.00 0.00 43 1014.4
20260507165018 18 234 3.2 6.4 0.00 0.00 0.00 47 1014.4
20260507164022 20 318 1.6 3.2 0.00 0.00 0.00 43 1014.4
20260507163021 20 202 3.2 4.8 0.00 0.00 0.00 46 1014.5
20260507162019 17 192 3.2 6.4 0.00 0.00 0.00 49 1014.5
20260507161038 20 314 1.6 3.2 0.00 0.00 0.00 44 1014.5
20260507160035 19 330 1.6 4.8 0.00 0.00 0.00 45 1014.4
20260507155025 20 4 1.6 3.2 0.00 0.00 0.00 43 1014.3
20260507154029 20 268 1.6 3.2 0.00 0.00 0.00 46 1014.2
20260507153015 19 279 1.6 3.2 0.00 0.00 0.00 47 1014.1
20260507152039 19 354 1.6 3.2 0.00 0.00 0.00 45 1014.3
20260507151023 19 336 3.2 3.2 0.00 0.00 0.00 47 1014.3
20260507150058 18 9 1.6 3.2 0.00 0.00 0.00 51 1014.4
20260507145032 18 222 3.2 6.4 0.00 0.00 0.00 51 1014.4
20260507144018 16 260 1.6 4.8 0.00 0.00 0.00 56 1014.4
20260507143022 15 181 3.2 6.4 0.00 0.00 0.00 59 1014.4
20260507142026 17 179 3.2 8.0 0.00 0.00 0.00 58 1014.6
20260507141030 16 347 1.6 4.8 0.00 0.00 0.00 58 1014.7
20260507140017 16 29 1.6 3.2 0.00 0.00 0.00 61 1014.9
20260507135021 15 191 1.6 6.4 0.00 0.00 0.00 64 1014.9
20260507134026 15 8 1.6 3.2 0.00 0.00 0.00 67 1015.0
20260507133050 13 203 1.6 4.8 0.00 0.00 0.00 73 1014.9
20260507132117 12 163 1.6 4.8 0.00 0.00 0.00 79 1015.1